Weather History for Fort Myers, FL

Change the Weather History Date:

Wednesday, May 2, 2012

  Actual Average Record
Temperature  
Mean Temperature 83 °F 76 °F  
Max Temperature 93 °F 87 °F 94 °F (1990)
Min Temperature 72 °F 66 °F 55 °F (1999)
Degree Days  
Heating Degree Days 0 0  
Month to date heating degree days 0 0  
Since 1 July heating degree days 129 287  
Cooling Degree Days 18 11  
Month to date cooling degree days 33 22  
Year to date cooling degree days 963 652  
Growing Degree Days 32 (Base 50)    
Moisture  
Dew Point 67 °F    
Average Humidity 65    
Maximum Humidity 93    
Minimum Humidity 41    
Precipitation  
Precipitation 0.00 in 0.06 in 0.57 in (1937)
Month to date precipitation 0.05 0.11  
Year to date precipitation 4.08 9.26  
Sea Level Pressure  
Sea Level Pressure 30.04 in    
Wind  
Wind Speed 10 mph (ESE)    
Max Wind Speed 20 mph    
Max Gust Speed 25 mph    
Visibility 10 miles    
Events      
T = Trace of Precipitation, MM = Missing Value Source: NWS Daily Summary

Daily Weather History Graph

Daily Weather History Graph

Search for Another Location

Airport:

Trip Planner

Search our weather history database for the weather conditions in past years. The results will help you decide how hot, cold, wet, or windy it might be!

Date:

Astronomy

May. 02, 2012 Rise Set
Actual Time 6:48 AM EDT 8:00 PM EDT
Civil Twilight 6:23 AM EDT 8:25 PM EDT
Nautical Twilight 5:54 AM EDT 8:54 PM EDT
Astronomical Twilight 5:24 AM EDT 9:24 PM EDT
Moon 4:30 PM EDT (5/2) 3:55 AM EDT (5/2)
Length of Visible Light 14h 01m
Length of Day
13h 12m
Waxing Gibbous, 83% of the Moon is Illuminated
May 2
Waxing Gibbous
May 5
Full
May 12
Last Quarter
May 20
New
May 28
First Quarter

Hourly Weather History & Observations

Time (EDT) Temp. Heat Index Dew Point Humidity Pressure Visibility Wind Dir Wind Speed Gust Speed Precip Events Conditions
12:53 AM 75.0 °F - 69.1 °F 82% 30.04 in 10.0 mi East 11.5 mph - N/A   Overcast
1:53 AM 73.9 °F - 68.0 °F 82% 30.03 in 10.0 mi East 6.9 mph - N/A   Clear
2:53 AM 73.0 °F - 68.0 °F 84% 30.02 in 10.0 mi ESE 5.8 mph - N/A   Mostly Cloudy
3:53 AM 73.0 °F - 69.1 °F 87% 30.01 in 10.0 mi ENE 5.8 mph - N/A   Clear
4:53 AM 72.0 °F - 69.1 °F 91% 30.01 in 10.0 mi East 6.9 mph - N/A   Clear
5:53 AM 72.0 °F - 69.1 °F 91% 30.02 in 10.0 mi East 6.9 mph - N/A   Clear
6:53 AM 72.0 °F - 69.1 °F 91% 30.04 in 9.0 mi East 6.9 mph - N/A   Clear
7:53 AM 73.9 °F - 69.1 °F 85% 30.05 in 10.0 mi East 8.1 mph - N/A   Clear
8:53 AM 78.1 °F - 69.1 °F 74% 30.06 in 10.0 mi ESE 12.7 mph - N/A   Clear
9:53 AM 81.0 °F 83.8 °F 68.0 °F 65% 30.07 in 10.0 mi ESE 10.4 mph - N/A   Partly Cloudy
10:35 AM 82.4 °F 85.4 °F 68.0 °F 62% 30.06 in 10.0 mi ESE 12.7 mph 20.7 mph N/A   Mostly Cloudy
10:53 AM 82.9 °F 85.8 °F 68.0 °F 60% 30.07 in 10.0 mi ESE 15.0 mph - N/A   Mostly Cloudy
11:53 AM 84.9 °F 87.6 °F 66.9 °F 55% 30.07 in 10.0 mi ESE 15.0 mph 20.7 mph N/A   Mostly Cloudy
12:00 PM 86.0 °F 88.2 °F 66.2 °F 51% 30.06 in 10.0 mi ESE 13.8 mph - N/A   Mostly Cloudy
12:53 PM 90.0 °F 91.7 °F 64.9 °F 43% 30.05 in 10.0 mi ESE 16.1 mph 23.0 mph N/A   Mostly Cloudy
1:53 PM 91.0 °F 92.6 °F 64.0 °F 41% 30.04 in 10.0 mi ESE 13.8 mph - N/A   Scattered Clouds
2:53 PM 90.0 °F 90.6 °F 63.0 °F 40% 30.03 in 10.0 mi ESE 12.7 mph - N/A   Mostly Cloudy
3:53 PM 90.0 °F 90.6 °F 63.0 °F 40% 30.01 in 10.0 mi East 13.8 mph - N/A   Mostly Cloudy
4:53 PM 89.1 °F 90.0 °F 63.0 °F 42% 29.99 in 10.0 mi ESE 10.4 mph - N/A   Mostly Cloudy
5:53 PM 82.9 °F 87.0 °F 70.0 °F 65% 30.00 in 10.0 mi Calm Calm - N/A   Overcast
6:53 PM 86.0 °F 87.3 °F 64.0 °F 48% 29.99 in 10.0 mi East 9.2 mph - N/A   Mostly Cloudy
7:53 PM 82.9 °F 84.6 °F 64.9 °F 54% 30.01 in 10.0 mi ESE 15.0 mph 21.9 mph N/A   Mostly Cloudy
8:53 PM 81.0 °F 83.0 °F 66.0 °F 60% 30.04 in 10.0 mi East 12.7 mph - N/A   Partly Cloudy
9:53 PM 79.0 °F - 66.0 °F 64% 30.06 in 10.0 mi ESE 13.8 mph - N/A   Clear
10:53 PM 77.0 °F - 66.0 °F 69% 30.07 in 10.0 mi ESE 10.4 mph - N/A   Clear
11:53 PM 75.0 °F - 66.0 °F 73% 30.08 in 10.0 mi East 11.5 mph - N/A   Clear